FW9150 Weather Reports


time (UTC)temp
C
wind
direction
speed
KPH
gust
KPH
rain 1hr
cm
rain 24hr
cm
rain mn
cm
humidity
%
barometer
mb
20260503190225 16 194 9.7 17.7 0.00 0.00 0.00 35 1016.0
20260503185225 16 238 1.6 4.8 0.00 0.00 0.00 35 1016.1
20260503184224 16 172 6.4 11.3 0.00 0.00 0.00 36 1016.2
20260503183224 16 180 3.2 4.8 0.00 0.00 0.00 37 1016.4
20260503182224 16 217 1.6 3.2 0.00 0.00 0.00 37 1016.3
20260503181225 16 177 3.2 6.4 0.00 0.00 0.00 39 1016.4
20260503180225 16 135 1.6 6.4 0.00 0.00 0.00 38 1016.3
20260503175225 16 155 4.8 6.4 0.00 0.00 0.00 40 1016.4
20260503174225 15 184 1.6 3.2 0.00 0.00 0.00 46 1016.4
20260503172225 15 149 3.2 4.8 0.00 0.00 0.00 52 1016.5
20260503171323 14 225 0.0 0.0 0.00 0.00 0.00 52 1016.4
20260503170423 13 180 4.8 8.0 0.00 0.00 0.00 61 1016.4
20260503150525 10 157 0.0 0.0 0.00 0.00 0.00 72 1015.9
20260503130526 7 157 0.0 0.0 0.00 0.00 0.00 76 1015.2
20260503110723 8 157 0.0 0.0 0.00 0.00 0.00 86 1015.7
20260503081122 10 157 0.0 0.0 0.00 0.00 0.00 82 1016.9
20260503080124 10 157 0.0 0.0 0.00 0.00 0.00 81 1017.0
20260503072126 10 157 0.0 0.0 0.00 0.00 0.00 82 1017.4
20260503071224 10 157 0.0 0.0 0.00 0.00 0.00 81 1017.4
20260503070225 10 157 0.0 0.0 0.00 0.00 0.00 82 1017.6
20260503054521 10 157 0.0 0.0 0.00 0.00 0.00 87 1017.8
20260503053522 10 157 0.0 0.0 0.00 0.00 0.00 85 1017.9
20260503052620 10 157 0.0 0.0 0.00 0.00 0.00 84 1018.0
20260503051621 10 157 0.0 0.0 0.00 0.00 0.00 84 1018.0
20260503050620 10 157 0.0 0.0 0.00 0.00 0.00 85 1018.1
20260503045622 11 157 0.0 0.0 0.00 0.00 0.00 84 1018.0
20260503044622 11 157 0.0 0.0 0.00 0.00 0.00 83 1018.0
20260503043722 11 157 0.0 0.0 0.00 0.00 0.00 83 1017.8
20260503042738 11 157 0.0 0.0 0.00 0.00 0.00 82 1017.8
20260503041721 11 157 0.0 0.0 0.00 0.00 0.00 81 1017.8
20260503035822 12 157 0.0 0.0 0.00 0.00 0.00 81 1017.6
20260503034836 12 157 0.0 0.0 0.00 0.00 0.00 80 1017.6
20260503032921 13 157 0.0 0.0 0.00 0.00 0.00 76 1017.5
20260503032020 13 157 0.0 0.0 0.00 0.00 0.00 77 1017.5
20260503031020 13 157 0.0 0.0 0.00 0.00 0.00 75 1017.4
20260503030021 13 157 0.0 0.0 0.00 0.00 0.00 73 1017.4
20260503025119 14 157 0.0 0.0 0.00 0.00 0.00 70 1017.4
20260503024120 14 157 0.0 0.0 0.00 0.00 0.00 69 1017.4
20260503023121 15 157 0.0 0.0 0.00 0.00 0.00 65 1017.3
20260503020221 15 157 0.0 0.0 0.00 0.00 0.00 60 1017.4
20260503015321 15 157 0.0 1.6 0.00 0.00 0.00 57 1017.4
20260503014419 15 183 0.0 1.6 0.00 0.00 0.00 55 1017.4
20260503013421 15 225 0.0 3.2 0.00 0.00 0.00 52 1017.4
20260503011521 16 157 0.0 1.6 0.00 0.00 0.00 51 1017.6
20260503005619 16 217 1.6 3.2 0.00 0.00 0.00 48 1017.6
20260503004622 17 135 1.6 4.8 0.00 0.00 0.00 46 1017.6
20260503003620 17 153 3.2 6.4 0.00 0.00 0.00 44 1017.4
20260503002622 17 202 3.2 8.0 0.00 0.00 0.00 42 1017.6
20260503001720 17 250 3.2 4.8 0.00 0.00 0.00 44 1017.6
20260503000720 17 177 6.4 9.7 0.00 0.00 0.00 43 1017.8
20260502235723 17 226 1.6 4.8 0.00 0.00 0.00 44 1017.6
20260502234722 17 156 3.2 6.4 0.00 0.00 0.00 44 1017.7
20260502233819 17 180 3.2 8.0 0.00 0.00 0.00 43 1018.0
20260502232821 17 216 1.6 3.2 0.00 0.00 0.00 45 1018.0
20260502231822 17 241 3.2 8.0 0.00 0.00 0.00 45 1018.0
20260502230822 17 245 6.4 8.0 0.00 0.00 0.00 44 1018.2
20260502225920 17 208 6.4 11.3 0.00 0.00 0.00 44 1018.2
20260502223921 17 208 6.4 12.9 0.00 0.00 0.00 44 1018.4
20260502221922 18 210 9.7 16.1 0.00 0.00 0.00 42 1018.6
20260502215021 18 161 6.4 11.3 0.00 0.00 0.00 45 1018.9
20260502214020 18 164 6.4 8.0 0.00 0.00 0.00 43 1019.0
20260502213021 18 178 4.8 6.4 0.00 0.00 0.00 42 1019.0
20260502211037 18 204 4.8 8.0 0.00 0.00 0.00 39 1019.2
20260502210022 19 156 9.7 11.3 0.00 0.00 0.00 39 1019.3
20260502205120 19 153 1.6 9.7 0.00 0.00 0.00 40 1019.2
20260502204121 19 161 4.8 8.0 0.00 0.00 0.00 41 1019.3
20260502203219 19 182 14.5 19.3 0.00 0.00 0.00 40 1019.5
20260502202221 19 200 4.8 16.1 0.00 0.00 0.00 42 1019.4
20260502201223 18 161 6.4 11.3 0.00 0.00 0.00 44 1019.3
20260502195220 18 231 1.6 4.8 0.00 0.00 0.00 43 1019.4
20260502194220 18 201 4.8 9.7 0.00 0.00 0.00 43 1019.4
20260502193223 18 172 4.8 8.0 0.00 0.00 0.00 42 1019.6
20260502192222 18 181 6.4 8.0 0.00 0.00 0.00 44 1019.7
20260502191222 17 202 8.0 11.3 0.00 0.00 0.00 44 1019.7